Regional Weather Roundup
Issued by NWS Huntsville, AL

Home | Current Version | Previous Version | Text Only | Print | Product List | Glossary On
Versions: 1 2 3 4 5 6 7 8 9 10 11 12 13 14 15 16 17 18 19 20 21 22 23 24 25 26 27
000
ASUS44 KHUN 281410
RWRHUN

WEATHER ROUNDUP FOR THE TENNESSEE VALLEY
NATIONAL WEATHER SERVICE HUNTSVILLE AL
900 AM CDT FRI APR 28 2017

ALZ001>004-281500-
NORTHWEST ALABAMA

CITY           SKY/WX    TMP DP  RH WIND       PRES   REMARKS
COURTLAND HCN    N/A     66 N/A N/A S5          N/A
RUSSELLVILLE     N/A     68 N/A N/A MISG        N/A
SHOALS AIRPORT CLOUDY    68  64  87 SE7       29.92S
SHOALS TVA RES   N/A     66 N/A N/A MISG        N/A
$$

ALZ005>007-016-281500-
NORTH CENTRAL ALABAMA

CITY           SKY/WX    TMP DP  RH WIND       PRES   REMARKS
CULLMAN AG STN   N/A     68 N/A N/A CALM        N/A
DECATUR AP     CLOUDY    69  65  86 SE5       29.94R
HUNTSVILLE AP  PTSUNNY   72  67  84 SE13      29.94S
MERIDIANVILLE  CLOUDY    68  61  77 CALM      29.96R
REDSTONE ARSN  PTSUNNY   70  66  88 S9        29.94R
VINEMONT AP    PTSUNNY   69  64  86 S12       29.97R
$$

ALZ008>010-281500-
NORTHEAST ALABAMA

CITY           SKY/WX    TMP DP  RH WIND       PRES   REMARKS
ALBERTVILLE    CLOUDY    68  68 100 S8        29.98R FOG
FORT PAYNE     CLOUDY    68  61  77 CALM      29.99S
SCOTTSBORO AP  CLOUDY    63  61  94 NE3       30.00S
SCOTTSBORO HCN   N/A     59 N/A N/A MISG        N/A
VALLEY HEAD      N/A     66 N/A N/A MISG        N/A
$$

TNZ076-096-097-281500-
SOUTHEASTERN MIDDLE TENNESSEE

CITY           SKY/WX    TMP DP  RH WIND       PRES   REMARKS
TULLAHOMA      SUNNY     70  61  73 S14       29.96R
WINCHESTER     PTSUNNY   70  61  73 SE9       29.97R
$$

...SURROUNDING SITES...

CITY           SKY/WX    TMP DP  RH WIND       PRES   REMARKS
ATLANTA        CLOUDY    73  69  87 S8        30.04R
ANNISTON       CLOUDY    73  68  84 CALM      29.99R
BIRMINGHAM     CLOUDY    73  68  84 S10       29.99R
CHATTANOOGA    PTSUNNY   64  58  80 CALM      30.02R
CORINTH        CLOUDY    66  61  82 SE10      29.88R
DALTON         CLOUDY    63  63 100 CALM      30.03R
GADSDEN        CLOUDY   N/A N/A N/A CALM      30.00R
GOLDEN TRNGL   PTSUNNY   70  64  83 SE9       29.85S FOG
HALEYVILLE     CLOUDY    66  64  93 S7        29.96R FOG
JACKSON TN     MOSUNNY   65  59  81 VRB3      29.87S
MEMPHIS        PTSUNNY   67  60  78 S7        29.82S
NASHVILLE      CLOUDY    63  55  75 CALM      29.95R
OXFORD MS      CLOUDY    66  61  82 S7        29.86S
ROME           CLOUDY    63  60  90 NE3       30.01S FOG
SAVANNAH       PTSUNNY   68  63  83 S10       29.88R
TUPELO         CLOUDY    65  63  93 SE9       29.88S FOG
TUSCALOOSA     CLOUDY    75  71  87 S10       29.93R
$$

...GULF COAST WEATHER...

CITY           SKY/WX    TMP DP  RH WIND       PRES   REMARKS
GULFPORT       CLOUDY    80  76  87 S15       29.89S
PASCAGOULA     CLOUDY    79  73  82 S12       29.92R
MOBILE         CLOUDY    80  72  76 S14       29.93S
GULF SHORES    CLOUDY    78  77  97 SE14      29.96R
PENSACOLA      PTSUNNY   79  73  82 SE14      29.96R
DESTIN         CLOUDY    79  78  97 S7        29.99R
PANAMA CITY    PTSUNNY   77  72  85 SE16      30.01R
APPALACHICOLA  CLOUDY    76  74  93 S14       30.03R
$$





USA.gov is the U.S. government's official web portal to all federal, state and local government web resources and services.